Powrót do katalogu

COSMOS 1579 COOLANT

LostLEO
NORAD 28273·DEBRIS·🇷🇺 Russia

Wystrzelony Jun 29, 1984 z Baikonur Cosmodrome

Loading…

Następne Przeloty (najbliższe 24 godziny)

TLE

NieaktualneSource: Space-Track

Epoka: Oct 16, 2022, 22:53 UTC

1 28273U 84069AJ  22289.95411315  .00000145  00000-0  18526-3 0  9996
2 28273  65.0511 120.2440 0031698 116.5061 243.9260 13.91405966946618

Śledź COSMOS 1579 COOLANT w czasie rzeczywistym z AllMySat

Download on the App Store